Location: Hines Observatory
(31.5604°N, 83.5172°W)
Time: 17:09:35
(UTC-05:00)

Daily predictions for brighter satellites

Satellite Brightness Start Highest point End
(mag) Time Altitude Azimuth Time Altitude Azimuth Time Altitude Azimuth
USA 215 3.4 18:35:29 10° NE 18:41:58 64° SE 18:48:24 10° SSW
NOSS 3-2 (C) 3.4 18:37:13 10° SSW 18:43:00 89° ESE 18:49:18 10° NNE
Cosmos 1371 Rocket 4.2 18:39:25 10° N 18:44:34 53° ENE 18:49:45 10° SSE
Cosmos 1980 4.3 18:40:03 10° N 18:45:16 36° ENE 18:50:27 10° SE
EO 1 Del DPAF 3.5 18:42:37 10° NNE 18:46:18 46° E 18:49:58 10° S
Cosmos 1867 4.2 18:41:23 10° NW 18:46:47 63° WSW 18:52:08 10° SSE
Cosmos 1733 Rocket 3.3 18:42:41 10° SSE 18:46:48 46° E 18:50:56 10° NNE
NOSS 0 Rocket 4.1 18:43:15 10° N 18:49:19 54° ENE 18:55:22 10° SE
Meteor 1-27 Rocket 3.9 18:44:08 10° N 18:50:03 82° E 18:55:59 10° S
OAO 2 Rocket 3.7 18:45:33 10° SW 18:50:21 51° SSE 18:55:07 10° E
Iridium 2 4.2 18:51:56 10° N 18:55:44 67° W 18:59:30 10° S
MOS 1 4.3 18:51:44 10° SSE 18:57:20 71° ENE 19:02:58 10° N
DELTA 2 R/B (1) 3.8 18:52:57 10° WNW 18:58:29 72° SSW 19:04:02 10° SE
Lacrosse 4 Rocket 4.0 18:58:56 10° NW 19:02:31 27° WSW 19:06:09 10° SSW
Landsat 4 3.9 18:58:59 10° N 19:02:43 74° WNW 19:06:27 10° SSW
Shenzhou-11 Module 3.0 19:00:55 10° NW 19:03:38 30° NNE 19:05:43 14° E
CZ-4 R/B 3.8 19:03:00 10° SSW 19:06:36 29° W 19:10:08 10° NW
SJ-6B 4.2 19:05:15 10° ESE 19:07:43 17° ENE 19:10:12 10° NNE
SPOT 3 Rocket 3.5 19:02:41 10° SSE 19:07:49 68° ENE 19:12:59 10° N
Cosmos 1238 4.3 19:10:42 10° S 19:13:45 89° W 19:17:14 10° N
Cosmos 2056 Rocket 3.5 19:08:34 10° NNW 19:14:00 81° ENE 19:19:25 10° SSE
CENTAUR R/B 2.4 19:09:51 10° SSW 19:15:28 60° ESE 19:21:49 10° NE
GPS 2-04 Rocket1 4.1 19:12:22 10° W 19:15:47 31° SSW 19:19:02 10° SE
MOS 1-B Rocket 4.4 19:09:17 10° S 19:16:11 77° WSW 19:22:10 10° NNW
Cosmos 2233 Rocket 4.1 19:10:51 10° N 19:17:09 84° W 19:23:21 10° S
Cosmos 2219 Rocket 2.9 19:12:03 10° NNW 19:17:35 57° WSW 19:23:04 10° S
Meteor 1-14 Rocket 4.3 19:12:02 10° S 19:17:39 62° E 19:23:25 10° NNE
Cosmos 1452 Rocket 4.2 19:15:36 10° N 19:20:18 32° ENE 19:24:58 10° SE
Cosmos 1048 Rocket 4.4 19:18:12 10° S 19:23:12 41° E 19:28:10 10° NNE
Cosmos 2227 Rocket 3.3 19:18:37 10° SW 19:24:01 46° WNW 19:29:27 10° N
Tiangong 2 3.1 19:22:32 10° NNW 19:24:36 16° NNE 19:25:22 15° NNE
ATLAS 2A CENTAUR R/B 4.4 19:11:51 10° W 19:25:04 36° SW 19:30:36 10° SSE
FREGAT/IRIS 2.6 19:23:36 10° SSE 19:26:28 50° ENE 19:29:21 10° N
Cosmos 405 3.9 19:23:55 10° SSW 19:27:18 51° W 19:30:44 10° N
Sich 1 Rocket 4.0 19:23:19 10° SSE 19:27:34 41° E 19:31:47 10° NNE
Cosmos 2237 Rocket 2.1 19:24:39 10° NNW 19:30:18 86° ENE 19:35:55 10° SSE
Geosat 4.3 19:26:09 10° NE 19:30:58 45° ESE 19:35:45 10° S
H-2A R/B 2.8 19:27:10 10° S 19:31:04 85° WSW 19:35:00 10° NNW
Cosmos 1464 Rocket 4.1 19:26:12 10° N 19:32:07 50° E 19:38:03 10° SSE
SL-16 R/B 2.8 19:27:34 10° N 19:32:38 33° ENE 19:35:31 21° ESE
Cosmos 1782 Rocket 4.1 19:31:29 10° SSE 19:35:33 37° E 19:39:38 10° NNE
Cosmos 158 Rocket 3.8 19:31:45 10° SSW 19:36:42 89° WNW 19:41:35 10° NNE
Cosmos 1378 Rocket 3.8 19:32:32 10° N 19:36:45 44° E 19:40:59 10° SSE
Meteor 1-20 Rocket 4.1 19:31:15 10° S 19:36:52 78° E 19:42:38 10° N
Cosmos 2297 Rocket 3.5 19:33:05 10° SW 19:38:21 40° WNW 19:43:40 10° N
Iridium 4 Rocket 3.2 19:36:29 10° N 19:41:15 58° E 19:45:36 10° SSE
Cosmos 1072 Rocket 4.4 19:36:14 10° N 19:42:25 70° E 19:48:41 10° SSE
Cosmos 1420 Rocket 4.3 19:37:58 10° N 19:42:59 42° ENE 19:45:52 23° SE
CZ-2D R/B 3.6 19:43:09 37° ESE 19:43:56 42° ENE 19:47:38 10° N
Meteor 1-18 Rocket 4.1 19:42:47 10° N 19:48:20 63° E 19:53:48 10° SSE
COSMOS 2455 4.3 19:45:32 10° SSE 19:47:48 18° SE 19:47:48 18° SE
Lacrosse 5 1.9 19:47:41 10° NW 19:52:45 81° SW 19:56:08 21° SSE
Cosmos 1812 3.5 19:52:18 10° NNW 19:56:04 52° W 19:59:50 10° S
ERS-2 3.1 19:54:44 10° S 19:58:18 48° W 20:01:53 10° NNW
FALCON 9 R/B 4.4 19:50:24 10° W 19:58:29 80° N 20:15:44 29° E
CRYOSAT 2 4.2 19:58:01 10° N 20:02:55 79° E 20:07:45 10° S
Cosmos 2333 Rocket 4.5 19:58:49 10° NW 20:03:18 25° WSW 20:07:47 10° SSW
BREEZE-M DEB (TANK) 2.8 20:01:59 10° SW 20:04:37 79° NW 20:05:46 45° NE
Cosmos 44 3.5 20:00:25 10° NNW 20:05:26 56° ENE 20:05:50 54° E
Cosmos 2034 Rocket 3.9 19:59:49 10° N 20:06:12 72° E 20:12:30 10° SSE
Thor Agena Rocket 3.8 20:01:26 10° N 20:06:29 66° WNW 20:11:27 10° SSW
Gbstr 26 Del rocket 3.4 20:03:01 10° SSW 20:05:40 41° S 20:05:40 41° S
Cosmos 1437 Rocket 2.8 20:04:40 10° S 20:08:40 82° W 20:09:55 43° N
USA 32 4.2 20:04:37 10° S 20:09:49 70° W 20:15:02 10° N
Cosmos 1891 Rocket 4.4 20:03:39 10° N 20:09:53 87° W 20:15:57 10° S
Envisat 2.8 20:05:34 10° SSE 20:10:38 79° ENE 20:15:43 10° N
Cosmos 1269 Rocket 4.0 20:09:10 10° SSW 20:14:26 79° WNW 20:18:52 15° NNE
Cosmos 1816 Rocket 4.4 20:12:13 10° S 20:18:34 81° E 20:24:57 10° N
SeaSat 1 2.3 20:18:12 57° SSE 20:19:14 89° WSW 20:24:12 10° NNW
Cosmos 2346 Rocket 4.3 20:15:11 10° S 20:21:22 71° E 20:27:31 10° N
Cosmos 2227 4.1 20:16:50 10° SSW 20:22:35 84° ESE 20:23:59 53° NNE
Sakura Rocket 4.4 20:19:05 10° WSW 20:25:23 65° SSE 20:27:02 53° ESE
Resurs 01 Rocket 3.9 20:33:23 16° N 20:33:23 16° N 20:34:15 10° N
OAO 2 Rocket 3.7 20:30:11 10° W 20:34:20 57° WNW 20:34:20 57° WNW
USA 267 4.4 20:56:05 31° N 20:56:05 31° N 21:00:02 10° NNW
SL-16 R/B 4.0 21:11:55 10° NW 21:16:31 26° WSW 21:17:32 25° WSW
